STARLINK-30466, 57904

Orbit data source: Space-Track

STARLINK-30466, 57904 is a payload satellite owned by SpaceX/Seattle (US) in LEO that was launched on Wed, 20 Sep 2023 UTC via an FALCON 9 launch vehicle from the Air Force Eastern Test Range (AFETR). Payload-class satellites include a variety of spacecraft equipped with specific instruments for various scientific and technological missions. These include communications satellites like Starlink; space stations such as the ISS; scientific satellites like the Hubble; Earth observation satellites from companies like Planet Labs, Umbra, and HawkEye 360; GPS; miniature CubeSats for education and research; and military/defense satellites.

Loading next visibility...
Identifier
57904, 2023-146P
Orbit
LEO
Country
Flag of USUS
Related business
Manufacturer
SpaceX/Seattle
Mission
Operational Commercial Communications
Bus & Motor
STARLINK V2M, Unknown motor
Mass
730 kg wet, ~700 kg dry
Launch date (UTC)
2023-09-20 (3 years ago)
Launch vehicle
FALCON 9
Launch site
Air Force Eastern Test Range (AFETR)
Object type
Payload
Rocket body
Debris
Shape & HBR
Box + 2 Pan, 17.7 m
Radar Cross Section
33.884 m², Large (>1 m²)

Expand to show TLE details & history
Last TLE update: 2 days ago

TLE from 2 days ago
0 STARLINK-30466
1 57904U 23146P   26171.21816683 -.00000129  00000-0  48353-5 0  9994
2 57904  43.0009  95.4354 0000992 262.7403  97.3336 15.27577561151674
Epoch: 2026-06-20T05:14Z
TLE epoch observation values (Epoch: 2026-06-20T05:14:09.614Z)
Latitude
Longitude
108.4594°
Altitude
482.919 km
Speed
7.626 km/s
True Right ascension
06h 21m 44s
True Declination
0° 00' 00"
Sunlit
Object was in daylight at epoch
Visualization orbit readout
Latitude
Unknown
Longitude
Unknown
Altitude
Unknown
Speed
Unknown
Apparent Right ascension
Unknown
Apparent Declination
Unknown
Sunlit
N/A
Visualization observer readout
Local Sidereal Time
21:41:47
Azimuth
Unknown
Elevation
Unknown
Doppler factor
Unknown
Orbital elements
Apogee altitude
485.682 km
Perigee altitude
484.321 km
Semi-major axis
6,863.138 km
Eccentricity
0.0001
Inclination
43.0009°
RAAN
95.4354°
Arg. of periapsis
262.7403°
True anomaly
97.34487°
Mean anomaly
97.3336°
Eccentric anomaly
97.33924°
Mean motion
3.81732 °/min
Orbital period
94.31 mins
BSTAR
0.0000048353
Loading maneuver chart data...
Computing Atmospheric mass density...
Loading historical data...
Loading historical data...
Loading historical data...
Loading historical data...
Loading historical data...
Loading historical data...
Loading historical data...

Documentation

Showing up to 5 results
|